TimeAKST,TemperatureF,Dew PointF,Humidity,Sea Level PressureIn,VisibilityMPH,Wind Direction,Wind SpeedMPH,Gust SpeedMPH,PrecipitationIn,Events,Conditions,WindDirDegrees,DateUTC
12:01 AM,10.9,1.9,67,29.69,10.0,Calm,Calm,-,N/A,,Mostly Cloudy,0,2012-12-29 09:01:00
1:01 AM,12.9,3.9,67,29.66,10.0,East,6.9,-,N/A,,Partly Cloudy,100,2012-12-29 10:01:00
2:01 AM,12.0,3.0,67,29.66,10.0,Variable,3.5,-,N/A,,Overcast,0,2012-12-29 11:01:00
3:01 AM,12.9,3.0,65,29.65,10.0,Variable,4.6,-,N/A,,Mostly Cloudy,0,2012-12-29 12:01:00
4:01 AM,10.0,1.0,67,29.63,10.0,Variable,5.8,-,N/A,,Mostly Cloudy,0,2012-12-29 13:01:00
5:01 AM,10.9,1.9,67,29.61,10.0,Variable,4.6,-,N/A,,Mostly Cloudy,0,2012-12-29 14:01:00
6:01 AM,12.0,3.0,67,29.60,10.0,East,8.1,-,N/A,,Overcast,90,2012-12-29 15:01:00
7:01 AM,12.9,3.9,67,29.57,10.0,East,8.1,-,N/A,,Overcast,90,2012-12-29 16:01:00
8:01 AM,14.0,5.0,67,29.55,10.0,Variable,4.6,-,N/A,,Overcast,0,2012-12-29 17:01:00
9:01 AM,15.1,6.1,68,29.55,10.0,Variable,3.5,-,N/A,,Overcast,0,2012-12-29 18:01:00
10:01 AM,16.0,7.0,68,29.54,9.0,East,4.6,-,0.00,Snow,Light Snow,80,2012-12-29 19:01:00
11:01 AM,16.0,7.0,68,29.55,10.0,East,6.9,-,0.00,,Overcast,90,2012-12-29 20:01:00
12:01 PM,15.1,8.1,74,29.55,10.0,Variable,5.8,-,N/A,,Overcast,0,2012-12-29 21:01:00
1:01 PM,15.1,8.1,74,29.55,10.0,ENE,5.8,-,0.00,,Overcast,70,2012-12-29 22:01:00
2:01 PM,15.1,8.1,74,29.55,9.0,ENE,6.9,-,0.00,Snow,Light Snow,70,2012-12-29 23:01:00
3:01 PM,15.8,10.4,79,29.42,6.0,East,6.9,-,0.00,Snow,Light Snow,100,2012-12-30 00:01:00
3:40 PM,15.8,10.4,79,29.41,9.0,East,11.5,-,0.00,Snow,Light Snow,90,2012-12-30 00:40:00
4:01 PM,15.1,10.9,84,29.55,9.0,East,8.1,-,0.00,Snow,Light Snow,100,2012-12-30 01:01:00
4:57 PM,15.8,12.2,86,29.44,3.0,ESE,5.8,-,0.00,Snow,Light Snow,110,2012-12-30 01:57:00
5:01 PM,16.0,12.9,88,29.57,4.0,ESE,5.8,-,0.00,Snow,Light Snow,120,2012-12-30 02:01:00
5:08 PM,15.8,12.2,86,29.44,9.0,East,8.1,-,0.00,Snow,Light Snow,90,2012-12-30 02:08:00
6:01 PM,17.1,12.9,84,29.57,8.0,East,6.9,-,0.00,Snow,Light Snow,100,2012-12-30 03:01:00
7:01 PM,16.0,12.0,84,29.58,9.0,East,8.1,-,0.00,Snow,Light Snow,100,2012-12-30 04:01:00
7:43 PM,15.8,12.2,86,29.45,10.0,East,10.4,-,0.00,,Overcast,100,2012-12-30 04:43:00
7:51 PM,17.6,12.2,79,29.46,10.0,East,9.2,-,0.00,,Overcast,90,2012-12-30 04:51:00
8:01 PM,18.0,12.9,81,29.59,10.0,East,10.4,-,0.00,,Overcast,90,2012-12-30 05:01:00
9:01 PM,19.0,12.9,77,29.60,9.0,East,9.2,-,0.00,Snow,Light Snow,80,2012-12-30 06:01:00
9:15 PM,19.4,12.2,74,29.46,9.0,East,9.2,18.4,0.00,Snow,Light Snow,80,2012-12-30 06:15:00
10:01 PM,19.9,14.0,78,29.60,10.0,East,12.7,20.7,0.00,,Overcast,90,2012-12-30 07:01:00
11:01 PM,19.9,16.0,85,29.60,10.0,East,10.4,21.9,N/A,,Overcast,80,2012-12-30 08:01:00
11:46 PM,19.4,17.6,93,29.47,10.0,East,8.1,16.1,N/A,,Overcast,90,2012-12-30 08:46:00